Location: Potomac
(46.8816°N, 113.5795°W)
Time: 11:30:38
(UTC+00:00)

AO-91 - Pass Details

Date: 06 July 2022
Orbit: 450 x 797 km, 97.7° (Epoch: 12 August)

Event Time Altitude Azimuth Distance (km) Brightness Sun altitude
Rises 05:41:49 0° 25° (NNE) 2,481 ? -15.6°
Reaches altitude 10° 05:44:10 10° 41° (NE) 1,592 ? -15.8°
Maximum altitude 05:46:55 23° 96° (E) 1,014 ? -16.0°
Enters shadow 05:47:06 23° 101° (E) 1,018 ? -16.0°
